User: anonymous   Login
Location: Springfield
(37.2150°N, 93.2980°W)
Time: 18:06:16
(UTC-05:00)
Language:

Iridium 62 - Orbit

View from above orbital plane
View from above orbital plane
View from above satellite
View from above satellite

Ground track
Ground track

The orbit data is extracted from the following two-line orbital elements,

1 25285U 98021A   14295.47782744  .00000416  00000-0  14164-3 0  9772
2 25285 086.3941 268.7977 0002119 100.9964 259.1470 14.34221679866178
Epoch (UTC): 22 October 2014 11:28:04
Eccentricity: 0.0002119
inclination: 86.3941°
perigee height: 776 km
apogee height: 779 km
right ascension of ascending node: 268.7977°
argument of perigee: 100.9964°
revolutions per day: 14.34221679
mean anomaly at epoch: 259.1470°
orbit number at epoch: 86617

The dashed part of the orbit path shows where the satellite is in the earth's shadow,  

DLR